• In Moldova, Republic
  • List of Countries
  • For 7 days
  • Water Temperature
  • Satellite Maps
  • Weather Map
  • Weather Widgets
  • user-avatar
    Login

    Hourly Weather Baydiki

    Today, 22 October, Monday

    Time Temperature Precipitation Wind Pressure Humidity
    00:00 +5°C° 0 mm 1 mps 749 mmHg 76%
    01:00 +4°C° 0 mm 1 mps 749 mmHg 78%
    02:00 +3°C° 0 mm 0 mps 749 mmHg 80%
    03:00 +2°C° 0 mm 0 mps 749 mmHg 83%
    04:00 +2°C° 0 mm 0 mps 749 mmHg 84%
    05:00 +3°C° 0 mm 1 mps 749 mmHg 85%
    06:00 +2°C° 0 mm 1 mps 748 mmHg 86%
    07:00 +3°C° 0 mm 1 mps 748 mmHg 84%
    08:00 +4°C° 0 mm 1 mps 748 mmHg 82%
    09:00 +4°C° 0 mm 1 mps 748 mmHg 80%
    10:00 +5°C° 0 mm 1 mps 748 mmHg 74%
    11:00 +5°C° 0 mm 2 mps 747 mmHg 69%
    12:00 +7°C° 0 mm 2 mps 747 mmHg 64%
    13:00 +7°C° 0 mm 2 mps 746 mmHg 63%
    14:00 +7°C° 0 mm 3 mps 746 mmHg 62%
    15:00 +8°C° 0 mm 3 mps 745 mmHg 60%
    16:00 +7°C° 0 mm 3 mps 745 mmHg 66%
    17:00 +5°C° 0 mm 3 mps 744 mmHg 71%
    18:00 +3°C° 0 mm 3 mps 744 mmHg 76%
    19:00 +3°C° 0 mm 3 mps 743 mmHg 78%
    20:00 +3°C° 0 mm 3 mps 743 mmHg 79%
    21:00 +2°C° 0 mm 3 mps 742 mmHg 81%
    22:00 +2°C° 0 mm 3 mps 742 mmHg 81%
    23:00 +2°C° 0 mm 3 mps 741 mmHg 82%

    Tomorrow, 23 October, Tuesday

    Time Temperature Precipitation Wind Pressure Humidity
    00:00 +2°C° 0 mm 3 mps 740 mmHg 82%
    01:00 +1°C° 0 mm 3 mps 740 mmHg 83%
    02:00 +1°C° 0 mm 3 mps 739 mmHg 84%
    03:00 +1°C° 0 mm 3 mps 739 mmHg 84%
    04:00 +1°C° 0 mm 3 mps 738 mmHg 85%
    05:00 +1°C° 0 mm 3 mps 737 mmHg 86%
    06:00 +1°C° 0 mm 3 mps 736 mmHg 87%
    07:00 0°C° 0 mm 4 mps 736 mmHg 86%
    08:00 0°C° 0 mm 4 mps 736 mmHg 85%
    09:00 +1°C° 0 mm 4 mps 736 mmHg 84%
    10:00 +3°C° 0 mm 4 mps 735 mmHg 83%
    11:00 +3°C° 0 mm 3 mps 735 mmHg 82%
    12:00 +4°C° 0 mm 3 mps 734 mmHg 81%
    13:00 +4°C° 0.2 mm 3 mps 734 mmHg 82%
    14:00 +4°C° 0.2 mm 3 mps 734 mmHg 83%
    15:00 +4°C° 0.2 mm 3 mps 733 mmHg 84%
    16:00 +5°C° 0.2 mm 2 mps 733 mmHg 86%
    17:00 +5°C° 0.2 mm 2 mps 732 mmHg 87%
    18:00 +5°C° 0.2 mm 1 mps 732 mmHg 89%
    19:00 +5°C° 0.1 mm 1 mps 731 mmHg 90%
    20:00 +5°C° 0.1 mm 1 mps 731 mmHg 90%
    21:00 +5°C° 0.1 mm 1 mps 730 mmHg 91%
    22:00 +5°C° 0.1 mm 1 mps 730 mmHg 91%
    23:00 +5°C° 0.1 mm 1 mps 729 mmHg 92%

    Day after tomorrow, 24 October, Wednesday

    Time Temperature Precipitation Wind Pressure Humidity
    00:00 +4°C° 0.1 mm 1 mps 728 mmHg 92%
    01:00 +3°C° 0 mm 2 mps 728 mmHg 93%
    02:00 +3°C° 0 mm 2 mps 727 mmHg 93%
    03:00 +3°C° 0 mm 2 mps 726 mmHg 94%
    04:00 +3°C° 0.1 mm 2 mps 726 mmHg 94%
    05:00 +3°C° 0.1 mm 2 mps 725 mmHg 94%
    06:00 +3°C° 0.1 mm 2 mps 724 mmHg 94%
    07:00 +2°C° 0.1 mm 3 mps 724 mmHg 91%
    08:00 +3°C° 0.1 mm 3 mps 724 mmHg 87%
    09:00 +3°C° 0.1 mm 3 mps 723 mmHg 84%
    10:00 +4°C° 0.1 mm 4 mps 723 mmHg 78%
    11:00 +4°C° 0.1 mm 4 mps 723 mmHg 73%
    12:00 +5°C° 0.1 mm 5 mps 722 mmHg 67%
    13:00 +5°C° 0.3 mm 5 mps 722 mmHg 70%
    14:00 +5°C° 0.3 mm 5 mps 722 mmHg 72%
    15:00 +5°C° 0.3 mm 5 mps 722 mmHg 75%
    16:00 +5°C° 0.4 mm 5 mps 721 mmHg 79%
    17:00 +5°C° 0.4 mm 4 mps 721 mmHg 82%
    18:00 +5°C° 0.4 mm 4 mps 721 mmHg 86%
    19:00 +5°C° 0.2 mm 3 mps 721 mmHg 88%
    20:00 +5°C° 0.2 mm 3 mps 721 mmHg 90%
    21:00 +5°C° 0.2 mm 3 mps 721 mmHg 93%
    22:00 +5°C° 0.1 mm 3 mps 721 mmHg 94%
    23:00 +6°C° 0.1 mm 2 mps 721 mmHg 95%

    25 October, Thursday

    Time Temperature Precipitation Wind Pressure Humidity
    00:00 +5°C° 0.1 mm 2 mps 721 mmHg 96%
    01:00 +6°C° 0.3 mm 2 mps 721 mmHg 96%
    02:00 +6°C° 0.3 mm 2 mps 721 mmHg 96%
    03:00 +6°C° 0.3 mm 2 mps 721 mmHg 97%
    04:00 +6°C° 0.5 mm 2 mps 721 mmHg 97%
    05:00 +6°C° 0.5 mm 2 mps 721 mmHg 97%
    06:00 +5°C° 0.5 mm 3 mps 720 mmHg 97%
    07:00 +5°C° 0.4 mm 3 mps 720 mmHg 96%
    08:00 +5°C° 0.4 mm 4 mps 719 mmHg 95%
    09:00 +5°C° 0.4 mm 4 mps 719 mmHg 94%
    10:00 +5°C° 2.1 mm 5 mps 718 mmHg 94%
    11:00 +5°C° 2.1 mm 5 mps 717 mmHg 94%
    12:00 +4°C° 2.1 mm 6 mps 716 mmHg 94%
    13:00 +4°C° 2.8 mm 6 mps 716 mmHg 92%
    14:00 +5°C° 2.8 mm 5 mps 715 mmHg 90%
    15:00 +5°C° 2.8 mm 5 mps 715 mmHg 88%
    16:00 +5°C° 1 mm 5 mps 715 mmHg 88%
    17:00 +3°C° 1 mm 5 mps 715 mmHg 87%
    18:00 +3°C° 1 mm 5 mps 714 mmHg 87%
    19:00 +3°C° 1.1 mm 6 mps 715 mmHg 86%
    20:00 +2°C° 1.1 mm 7 mps 715 mmHg 85%
    21:00 +1°C° 1.1 mm 8 mps 716 mmHg 84%
    22:00 +1°C° 0.4 mm 8 mps 717 mmHg 83%
    23:00 +1°C° 0.4 mm 8 mps 718 mmHg 82%

    26 October, Friday

    Time Temperature Precipitation Wind Pressure Humidity
    00:00 0°C° 0.4 mm 9 mps 719 mmHg 81%
    01:00 0°C° 0.1 mm 8 mps 720 mmHg 80%
    02:00 -1°C° 0.1 mm 8 mps 721 mmHg 79%
    03:00 -1°C° 0.1 mm 8 mps 722 mmHg 78%
    04:00 -2°C° 0 mm 7 mps 723 mmHg 80%
    05:00 -2°C° 0 mm 6 mps 724 mmHg 82%
    06:00 -3°C° 0 mm 6 mps 725 mmHg 83%
    07:00 -2°C° 0 mm 6 mps 725 mmHg 82%
    08:00 -1°C° 0 mm 6 mps 726 mmHg 82%
    09:00 -1°C° 0 mm 6 mps 727 mmHg 81%
    10:00 +1°C° 0 mm 6 mps 727 mmHg 79%
    11:00 +1°C° 0 mm 6 mps 728 mmHg 77%
    12:00 +2°C° 0 mm 6 mps 729 mmHg 74%
    13:00 +2°C° 0 mm 6 mps 729 mmHg 74%
    14:00 +2°C° 0 mm 5 mps 730 mmHg 73%
    15:00 +2°C° 0 mm 5 mps 730 mmHg 72%
    16:00 +2°C° 0 mm 5 mps 731 mmHg 76%
    17:00 +1°C° 0 mm 5 mps 732 mmHg 79%
    18:00 0°C° 0 mm 4 mps 732 mmHg 82%
    19:00 0°C° 0 mm 4 mps 733 mmHg 82%
    20:00 0°C° 0 mm 4 mps 733 mmHg 82%
    21:00 0°C° 0 mm 4 mps 733 mmHg 82%
    22:00 0°C° 0 mm 4 mps 734 mmHg 82%
    23:00 +2°C° 0 mm 3 mps 734 mmHg 82%

    27 October, Saturday

    Time Temperature Precipitation Wind Pressure Humidity
    00:00 +2°C° 0 mm 3 mps 735 mmHg 82%
    01:00 +2°C° 0 mm 3 mps 735 mmHg 85%
    02:00 +1°C° 0 mm 3 mps 735 mmHg 88%
    03:00 0°C° 0 mm 4 mps 735 mmHg 91%
    04:00 0°C° 0 mm 4 mps 735 mmHg 90%
    05:00 +1°C° 0 mm 5 mps 735 mmHg 90%
    06:00 +1°C° 0 mm 5 mps 735 mmHg 89%
    07:00 +1°C° 0.3 mm 6 mps 734 mmHg 88%
    08:00 +2°C° 0.3 mm 6 mps 734 mmHg 87%
    09:00 +3°C° 0.3 mm 7 mps 734 mmHg 87%
    10:00 +4°C° 0.1 mm 7 mps 734 mmHg 85%
    11:00 +4°C° 0.1 mm 7 mps 734 mmHg 84%
    12:00 +5°C° 0.1 mm 7 mps 734 mmHg 83%
    13:00 +5°C° 0.1 mm 7 mps 735 mmHg 82%
    14:00 +7°C° 0.1 mm 6 mps 735 mmHg 82%
    15:00 +7°C° 0.1 mm 6 mps 735 mmHg 82%
    16:00 +7°C° 0 mm 6 mps 735 mmHg 83%
    17:00 +7°C° 0 mm 5 mps 736 mmHg 85%
    18:00 +7°C° 0 mm 5 mps 736 mmHg 86%
    19:00 +7°C° 0 mm 5 mps 736 mmHg 87%
    20:00 +7°C° 0 mm 5 mps 736 mmHg 88%
    21:00 +7°C° 0 mm 4 mps 737 mmHg 88%
    22:00 +6°C° 0 mm 4 mps 737 mmHg 89%
    23:00 +6°C° 0 mm 4 mps 737 mmHg 90%

    28 October, Sunday

    Time Temperature Precipitation Wind Pressure Humidity
    00:00 +7°C° 0 mm 3 mps 737 mmHg 91%
    01:00 +5°C° 0 mm 3 mps 737 mmHg 92%
    02:00 +5°C° 0 mm 3 mps 737 mmHg 92%
    03:00 +5°C° 0 mm 3 mps 737 mmHg 93%
    04:00 +5°C° 0.6 mm 3 mps 736 mmHg 93%
    05:00 +6°C° 0.6 mm 4 mps 736 mmHg 93%
    06:00 +6°C° 0.6 mm 4 mps 736 mmHg 93%
    07:00 +6°C° 0.6 mm 5 mps 736 mmHg 91%
    08:00 +7°C° 0.6 mm 5 mps 735 mmHg 90%
    09:00 +8°C° 0.6 mm 6 mps 735 mmHg 88%
    10:00 +9°C° 0.3 mm 6 mps 735 mmHg 85%
    11:00 +9°C° 0.3 mm 6 mps 735 mmHg 82%
    12:00 +10°C° 0.3 mm 7 mps 735 mmHg 79%
    13:00 +10°C° 0.1 mm 6 mps 735 mmHg 79%
    14:00 +11°C° 0.1 mm 6 mps 736 mmHg 79%
    15:00 +12°C° 0.1 mm 5 mps 736 mmHg 79%
    16:00 +12°C° 0.2 mm 5 mps 736 mmHg 81%
    17:00 +10°C° 0.2 mm 5 mps 736 mmHg 84%
    18:00 +10°C° 0.2 mm 5 mps 736 mmHg 86%
    19:00 +10°C° 0 mm 5 mps 736 mmHg 86%
    20:00 +10°C° 0 mm 5 mps 736 mmHg 86%
    21:00 +10°C° 0 mm 5 mps 736 mmHg 86%
    22:00 +10°C° 0.2 mm 5 mps 737 mmHg 86%
    23:00 +10°C° 0.2 mm 5 mps 737 mmHg 86%
    Show more